MOLNIYA 3-39 (Decayed 2009-07-08) 1 20813U 90084A 09189.90460253 .99999999 89548-5 87463-3 0 3199 2 20813 062.3518 044.6063 0346089 278.5755 153.1381 15.91472257138527 MOLNIYA 1-80 1 21118U 91012A 12036.40857715 .00001710 00000-0 10000-3 0 652 2 21118 061.6581 129.9272 7308093 266.2761 015.7601 02.00914845153668 MOLNIYA 3-40 1 21196U 91022A 12035.08865767 -.00001306 +00000-0 +10000-3 0 05497 2 21196 061.5951 111.1263 7353485 269.1736 014.3978 02.00710680152949 MOLNIYA 1-81 1 21426U 91043A 12035.24181649 +.00000159 +00000-0 +10000-3 0 06556 2 21426 062.0293 107.6885 7236534 274.1562 013.7532 02.00612590151206 MOLNIYA 3-41 1 21706U 91065A 12034.82259152 +.00001347 +00000-0 +23213-3 0 09552 2 21706 063.2891 260.3205 7294875 285.0780 010.6319 02.04344208149569 MOLNIYA 1-83 (Decayed 2007-07-01) 1 21897U 92011A 07182.54228483 .99999999 39507-5 71364-3 0 6569 2 21897 062.0262 125.4048 0862131 260.6337 095.0674 14.64030781113010 MOLNIYA 1-84 (Decayed 2008-04-04) 1 22068U 92050A 08090.07126951 .00081002 20360-6 10000-3 0 2504 2 22068 061.4234 120.4751 4232825 269.9804 042.9330 07.21307907115547 MOLNIYA 3-42 1 22178U 92067A 12036.91052668 .00008555 00000-0 17323-2 0 1121 2 22178 062.1287 044.7986 7509076 275.8385 011.3549 02.01464264141512 MOLNIYA 3-43 (Decayed 2008-11-08) 1 22255U 92085A 08313.00370478 .39506582 68961-5 10000-3 0 2321 2 22255 063.0849 336.0925 0327870 259.1187 097.3762 15.94406168118217 MOLNIYA 1-86 1 22671U 93035A 12037.50420561 .00259230 -22044-6 22880-3 0 8884 2 22671 062.6600 293.8432 5614739 285.7381 304.9986 04.79885335141535 MOLNIYA 3-45 1 22729U 93049A 12034.21737341 -.00001369 +00000-0 +10000-3 0 03353 2 22729 061.8068 143.0568 7323907 263.7223 016.5391 02.00344988135536 MOLNIYA 1-87 1 22949U 93079A 12035.11095892 -.00001101 00000-0 47532-2 0 8211 2 22949 062.2607 273.0571 7369445 255.0559 019.7691 02.01010393132823 MOLNIYA 3-46 (Decayed 2009-02-10) 1 23211U 94051A 09041.46604329 .99999999 60629-5 70923-3 0 6302 2 23211 062.1686 108.0618 0618716 264.3573 240.5314 15.21977803107058 MOLNIYA 1-88 1 23420U 94081A 12035.11590787 -.00000917 +00000-0 +90235-3 0 03604 2 23420 062.0264 085.5012 7458295 274.9196 011.9388 02.02337878125853 MOLNIYA 3-47 1 23642U 95042A 12035.12916095 +.00000182 +00000-0 -12179-2 0 08815 2 23642 062.0604 247.9632 7344072 260.3471 017.6748 02.00582252120844 MOLNIYA 1-89 1 24273U 96045A 12037.28699457 .01450021 84511-5 18437-3 0 5477 2 24273 062.5023 094.8127 6868076 267.6527 043.8571 02.93342836120332 MOLNIYA 3-48 (Decayed 2007-10-18) 1 24640U 96060A 07291.13395417 .99999999 83187-5 52459-3 0 1139 2 24640 063.3472 327.2473 0128626 257.0956 102.6261 16.43397936 81211 MOLNIYA 1-90 1 24960U 97054A 12035.87310980 .00003331 00000-0 63453-3 0 3070 2 24960 062.4078 292.0419 7470936 257.5349 017.6788 02.04231652105354 MOLNIYA 3-49 (Decayed 2011-02-02) 1 25379U 98040A 11033.10479331 .97286319 66556-5 53181-3 0 4672 2 25379 063.0702 228.1245 0377390 261.8205 248.3402 15.77980215 97805 MOLNIYA 1-91 1 25485U 98054A 12036.55795411 -.00000012 00000-0 10000-3 0 4879 2 25485 063.5955 065.9145 7277601 254.0714 335.7703 02.00611547 97833 MOLNIYA 3-50 1 25847U 99036A 12036.41206387 .00000467 00000-0 10000-3 0 1999 2 25847 063.4612 163.9978 6856306 259.9326 022.5771 02.00592048 92176 MOLNIYA 3-51 1 26867U 01030A 12037.39990072 .00000212 00000-0 00000+0 0 7931 2 26867 063.9339 086.5123 7306367 256.1515 175.7817 02.00533856 77301 MOLNIYA 1-92 1 27707U 03011A 12035.70600081 -.00000357 00000-0 10000-3 0 1229 2 27707 064.6298 093.1115 7340734 247.6666 039.0016 02.00698387 64805 MOLNIYA 3-53 1 27834U 03029A 12037.41634655 -.00000019 00000-0 00000+0 0 840 2 27834 064.6259 093.2216 7332785 247.9929 183.4252 02.00628591 63263 MOLNIYA 1-93 1 28163U 04005A 12035.64597066 +.00000195 +00000-0 +10000-3 0 07529 2 28163 064.7750 179.3997 6891594 259.6659 171.3392 02.00644741058344